Location: Newark
(44.6028°N, 124.0883°W)
Time: 05:11:33
(UTC+00:00)

Vanguard 2 - Visible Passes

Search period start: 24 October 2019 00:00
Search period end: 03 November 2019 00:00
Orbit: 554 x 2937 km, 32.9° (Epoch: 23 October)

Date Brightness Start Highest point End Pass type
(mag) Time Alt. Az. Time Alt. Az. Time Alt. Az.
24 Oct 9.8 01:37:01 10° SW 01:43:28 34° SSE 01:53:25 10° E visible
24 Oct 9.9 03:43:43 10° WSW 03:52:23 45° S 03:56:46 35° SE visible
24 Oct 10.6 05:52:05 10° W 05:58:09 30° SW 05:58:09 30° SW visible
25 Oct 9.7 01:54:29 10° SW 02:01:06 38° SSE 02:11:30 10° ESE visible
25 Oct 9.9 04:01:33 10° WSW 04:10:13 43° S 04:13:25 38° SSE visible
25 Oct 10.9 06:10:19 10° WSW 06:14:48 23° WSW 06:14:48 23° WSW visible
26 Oct 9.7 02:12:05 10° WSW 02:18:49 39° S 02:28:42 12° ESE visible
26 Oct 10.1 04:19:27 10° WSW 04:28:05 39° S 04:30:06 37° S visible
26 Oct 11.1 06:28:49 10° WSW 06:31:29 17° WSW 06:31:29 17° WSW visible
27 Oct 9.7 02:29:47 10° WSW 02:36:35 40° S 02:45:26 15° ESE visible
27 Oct 10.2 04:37:27 10° WSW 04:45:57 35° SSW 04:46:51 34° S visible
27 Oct 11.4 06:47:48 10° WSW 06:48:15 11° WSW 06:48:15 11° WSW visible
28 Oct 9.7 02:47:33 10° WSW 02:54:23 38° S 03:02:14 17° SE visible
28 Oct 10.4 04:55:36 10° WSW 05:03:39 30° SSW 05:03:39 30° SSW visible
29 Oct 9.9 03:05:24 10° WSW 03:12:13 35° S 03:19:06 19° SE visible
29 Oct 10.7 05:14:01 10° WSW 05:20:31 24° SSW 05:20:31 24° SSW visible
30 Oct 10.0 03:23:22 10° WSW 03:30:04 31° S 03:36:03 20° SSE visible
30 Oct 10.9 05:32:51 10° WSW 05:37:28 18° SW 05:37:28 18° SW visible
31 Oct 9.6 01:33:54 10° WSW 01:39:11 32° S 01:47:13 10° ESE visible
31 Oct 10.3 03:41:28 10° WSW 03:47:56 27° SSW 03:53:05 19° SSE visible
31 Oct 11.2 05:52:39 10° SW 05:54:31 12° SW 05:54:31 12° SW visible
01 Nov 9.7 01:51:44 10° WSW 01:56:59 30° S 02:04:53 10° SE visible
01 Nov 10.5 03:59:50 10° WSW 04:05:48 22° SSW 04:10:14 17° S visible
02 Nov 9.9 02:09:39 10° WSW 02:14:49 27° S 02:22:20 10° SE visible
02 Nov 10.8 04:18:38 10° WSW 04:23:41 17° SSW 04:27:30 14° S visible
